[[{"header":{"parameterUnit":"m.s-1","parameterCategory":1,"la1":30.2991,"la2":30.254,"lo1":-89.0895,"lo2":-89.0444,"dy":0.0017,"dx":0.0017,"nx":28,"ny":28,"refTime":"2023-07-26T21:00:00:Z","depth":0,"parameterNumber":2,"parameterNumberName":"U-component_of_WINDS"},"data":[0,0,0,0,0,0,0,0,0,0,0,0,0,0,0,0,0,0,0,0,0,0,0,0,0,0,0,0,0,0,0,0,0,0,0,0,0,0,0,0,0,0,0,0,0,0,0,0,0,0,0,0,0,0,0,0,0,0,0.1321,0.1322,0,0.1405,0.1406,0.1407,0.1446,0.1446,0.1446,0.1446,0.1532,0.1534,0.1536,0,0,0,0,0,0,0,0,0,0,0,0,0,0.1194,0.1196,0.1321,0.1322,0.1323,0.1405,0.1406,0.1407,0.1446,0.1446,0.1446,0.1446,0.1531,0.1534,0.1537,0,0,0,0,0,0,0,0,0,0,0,0,0,0.1261,0.1197,0.1321,0.1352,0.1356,0.1404,0.1406,0.1407,0.1446,0.1446,0.1446,0.1446,0.153,0.1533,0.1537,0.156,0,0,0.1548,0.1549,0,0,0,0,0,0,0,0,0.1257,0.1265,0.1347,0.135,0.1355,0.1415,0.1393,0.1459,0.1446,0.1412,0.1446,0.1446,0.1493,0.1499,0.1515,0.1564,0.1568,0.1548,0.155,0.1552,0.1553,0,0,0,0,0,0,0,0.1252,0.1262,0.1354,0.1348,0.1353,0.1362,0.1372,0.1405,0.1452,0.1415,0.1418,0.1427,0.1495,0.1512,0.1518,0.1569,0.1548,0.1551,0.1553,0.1554,0.1641,0.1641,0,0,0,0,0,0,0.1243,0.1258,0.1352,0.1357,0.1305,0.1365,0.1375,0.1396,0.1452,0.146,0.1427,0.1429,0.1506,0.1514,0.1521,0.1552,0.1552,0.1555,0.1557,0.1641,0.1641,0.1641,0,0,0,0,0,0,0.124,0.1251,0.1348,0.1308,0.1321,0.1367,0.139,0.1397,0.1414,0.1461,0.1469,0.1436,0.1506,0.1516,0.155,0.1555,0.1556,0.156,0.164,0.1641,0.1641,0.1614,0,0,0,0,0,0,0.1236,0.1249,0.1259,0.1308,0.1323,0.1376,0.139,0.1399,0.142,0.1423,0.1471,0.1479,0.1507,0.1545,0.1553,0.156,0.1562,0.164,0.1641,0.1641,0.1614,0.1613,0.1612,0,0,0,0,0,0.1231,0.1248,0.1259,0.127,0.1336,0.1376,0.1385,0.1416,0.142,0.143,0.146,0.1478,0.1553,0.1548,0.1558,0.1566,0.164,0.164,0.1641,0.1615,0.1613,0.1612,0,0,0,0,0,0,0.1198,0.1255,0.1268,0.1301,0.1333,0.1383,0.1396,0.1413,0.1445,0.1447,0.1484,0.1495,0.1526,0.1549,0.1542,0.1591,0.1598,0.1601,0.1575,0.1574,0.1572,0.1566,0.1565,0,0,0,0,0,0.1194,0.1222,0.127,0.1295,0.131,0.135,0.1369,0.139,0.1425,0.1439,0.1472,0.1505,0.1536,0.1556,0.1588,0.1618,0.1629,0.1628,0.1627,0.1625,0.1627,0.1645,0.1645,0.1643,0.1643,0.1643,0,0,0.1187,0.1222,0.1237,0.1289,0.1317,0.1345,0.1362,0.1391,0.1412,0.1444,0.1478,0.1503,0.1542,0.1575,0.159,0.1595,0.163,0.1626,0.1625,0.1627,0.1645,0.1645,0.1646,0.1643,0.1643,0.1643,0,0,0.1189,0.1218,0.1241,0.1269,0.131,0.1337,0.1342,0.1389,0.1407,0.1441,0.1466,0.1491,0.1544,0.1572,0.1592,0.1603,0.1621,0.1613,0.1606,0.1623,0.1623,0.1624,0.1628,0.1629,0.1614,0.1614,0.1614,0,0.1175,0.1218,0.1251,0.1279,0.1301,0.1331,0.1355,0.138,0.1429,0.1443,0.1448,0.1515,0.1544,0.1583,0.1585,0.1601,0.1608,0.1608,0.162,0.1621,0.1622,0.1626,0.1628,0.1613,0.1613,0.1613,0.1613,0,0.1199,0.1229,0.1243,0.129,0.1313,0.1339,0.1375,0.1395,0.1414,0.1439,0.1474,0.151,0.1549,0.156,0.1578,0.1601,0.1603,0.1613,0.1621,0.162,0.1625,0.1627,0.1611,0.1612,0.1612,0.1612,0,0,0.1183,0.1248,0.1252,0.1274,0.1322,0.1345,0.1372,0.141,0.1426,0.1459,0.1482,0.1526,0.1536,0.1559,0.1581,0.1596,0.1602,0.1605,0.1606,0.1603,0.1629,0.1621,0.1623,0.1614,0.1614,0.1615,0.1626,0,0.1192,0.1241,0.1271,0.1308,0.1336,0.1364,0.1388,0.1419,0.1444,0.147,0.1498,0.1528,0.1539,0.1553,0.1569,0.1598,0.1608,0.1598,0.1636,0.1637,0.1626,0.1625,0.1617,0.1626,0.1628,0.1628,0.1629,0,0.1208,0.1241,0.128,0.1325,0.1338,0.1358,0.1395,0.142,0.1457,0.1473,0.1499,0.1521,0.155,0.1555,0.1596,0.1588,0.1605,0.1622,0.1623,0.1628,0.1633,0.163,0.163,0.1631,0.1632,0.1632,0.1631,0,0.1193,0.1246,0.1277,0.1294,0.1347,0.1361,0.1383,0.1419,0.144,0.1472,0.1486,0.1521,0.154,0.1567,0.1598,0.1598,0.1635,0.1643,0.165,0.1649,0.1657,0.1656,0.1659,0.1667,0.1667,0.1667,0.1667,0,0.1199,0.1223,0.1271,0.1289,0.1316,0.135,0.1376,0.1401,0.1432,0.1456,0.1483,0.1505,0.1544,0.1571,0.1595,0.1625,0.1634,0.1648,0.1654,0.1646,0.1644,0.1658,0.1658,0.1668,0.1667,0.1667,0.1667,0,0.1187,0.122,0.1255,0.1302,0.1314,0.1332,0.1372,0.1391,0.1416,0.1447,0.1456,0.1496,0.1529,0.1562,0.1606,0.1622,0.1652,0.166,0.1639,0.1643,0.1648,0.1647,0.1661,0.1664,0.1669,0.1669,0.1669,0,0.1189,0.1208,0.1256,0.1274,0.1296,0.1325,0.1346,0.138,0.1401,0.1443,0.1457,0.1492,0.1522,0.1573,0.1606,0.164,0.1649,0.1652,0.1655,0.1646,0.165,0.1648,0.1651,0.1651,0.165,0.165,0.165,0,0.119,0.1205,0.1235,0.127,0.1295,0.1324,0.1354,0.1367,0.1407,0.1429,0.1463,0.1486,0.1531,0.1565,0.1603,0.1626,0.1645,0.1649,0.1652,0.1644,0.1632,0.1639,0.1636,0.1648,0.1649,0.1649,0.1649,0.1649,0.1185,0.1203,0.124,0.1272,0.1298,0.1326,0.1346,0.1374,0.1403,0.1442,0.146,0.1494,0.1529,0.1582,0.1605,0.1632,0.1637,0.1642,0.1643,0.1644,0.1642,0.1627,0.1638,0.1639,0.1639,0.1639,0.1639,0,0.1187,0.1212,0.1241,0.1283,0.1308,0.1323,0.1357,0.1377,0.1407,0.1438,0.1467,0.1505,0.1538,0.1574,0.1609,0.1623,0.1633,0.1632,0.1631,0.1636,0.1635,0.1629,0.1623,0.1623,0.1623,0.1623,0.1623,0.1623,0.1191,0.1222,0.1242,0.1286,0.1311,0.1344,0.1362,0.1388,0.1413,0.1455,0.1483,0.1505,0.1538,0.1576,0.1607,0.1616,0.1628,0.1624,0.1636,0.1635,0.1636,0.1637,0.1631,0.1627,0.1627,0.1635,0.1635,0.1635]},{"header":{"parameterUnit":"m.s-1","parameterCategory":1,"la1":30.2991,"la2":30.254,"lo1":-89.0895,"lo2":-89.0444,"dy":0.0017,"dx":0.0017,"nx":28,"ny":28,"refTime":"2023-07-26T21:00:00:Z","depth":0,"parameterNumber":3,"parameterNumberName":"V-component_of_WINDS"},"data":[0,0,0,0,0,0,0,0,0,0,0,0,0,0,0,0,0,0,0,0,0,0,0,0,0,0,0,0,0,0,0,0,0,0,0,0,0,0,0,0,0,0,0,0,0,0,0,0,0,0,0,0,0,0,0,0,0,0,3.2923,3.2922,0,3.2872,3.2871,3.2871,3.2847,3.2847,3.2847,3.2847,3.2789,3.2788,3.2786,0,0,0,0,0,0,0,0,0,0,0,0,0,3.2993,3.2992,3.2923,3.2922,3.2921,3.2872,3.2871,3.2871,3.2847,3.2847,3.2847,3.2847,3.279,3.2788,3.2786,0,0,0,0,0,0,0,0,0,0,0,0,0,3.2954,3.2992,3.2923,3.2903,3.2901,3.2872,3.2871,3.2871,3.2847,3.2847,3.2847,3.2847,3.279,3.2788,3.2786,3.2771,0,0,3.2779,3.2778,0,0,0,0,0,0,0,0,3.2957,3.2952,3.2907,3.2905,3.2902,3.2866,3.2875,3.2837,3.2846,3.2867,3.2847,3.2847,3.2814,3.281,3.28,3.2768,3.2765,3.2779,3.2777,3.2776,3.2775,0,0,0,0,0,0,0,3.2959,3.2954,3.2902,3.2906,3.2903,3.2896,3.289,3.2868,3.2841,3.2865,3.2863,3.2858,3.2813,3.2803,3.2799,3.2765,3.2779,3.2777,3.2775,3.2774,3.2717,3.2717,0,0,0,0,0,0,3.2966,3.2956,3.2904,3.2901,3.293,3.2894,3.2888,3.2877,3.2841,3.2836,3.2858,3.2857,3.2807,3.2802,3.2797,3.2776,3.2776,3.2774,3.2773,3.2717,3.2717,3.2716,0,0,0,0,0,0,3.2968,3.2962,3.2906,3.2928,3.2921,3.2893,3.2881,3.2876,3.2866,3.2836,3.283,3.2853,3.2806,3.28,3.2778,3.2774,3.2773,3.2771,3.2717,3.2717,3.2717,3.2736,0,0,0,0,0,0,3.297,3.2962,3.2957,3.2928,3.2919,3.2889,3.2881,3.2875,3.2863,3.2861,3.2829,3.2824,3.2806,3.2781,3.2775,3.2771,3.2769,3.2717,3.2717,3.2717,3.2735,3.2736,3.2737,0,0,0,0,0,3.2972,3.2963,3.2957,3.2951,3.2913,3.2889,3.2884,3.2865,3.2862,3.2856,3.2837,3.2825,3.2776,3.2779,3.2772,3.2767,3.2717,3.2717,3.2717,3.2735,3.2736,3.2737,0,0,0,0,0,0,3.2991,3.2959,3.2952,3.2934,3.2915,3.2885,3.2877,3.2867,3.2846,3.2845,3.2821,3.2814,3.2794,3.2778,3.2783,3.275,3.2745,3.2743,3.2761,3.2762,3.2763,3.2767,3.2767,0,0,0,0,0,3.2993,3.2978,3.2951,3.2937,3.2928,3.2905,3.2893,3.2881,3.2859,3.285,3.2829,3.2807,3.2787,3.2773,3.2753,3.2733,3.2725,3.2726,3.2727,3.2727,3.2726,3.2714,3.2714,3.2716,3.2716,3.2716,0,0,3.2997,3.2978,3.297,3.294,3.2924,3.2908,3.2898,3.2881,3.2868,3.2847,3.2825,3.2809,3.2783,3.2762,3.2751,3.2748,3.2724,3.2727,3.2728,3.2726,3.2714,3.2714,3.2714,3.2715,3.2715,3.2715,0,0,3.2996,3.298,3.2968,3.2952,3.2928,3.2912,3.2909,3.2882,3.2871,3.2849,3.2833,3.2816,3.2782,3.2764,3.275,3.2743,3.2731,3.2737,3.2741,3.2729,3.2729,3.2729,3.2726,3.2725,3.2735,3.2735,3.2735,0,3.3003,3.298,3.2962,3.2946,3.2933,3.2916,3.2902,3.2887,3.2857,3.2848,3.2845,3.2801,3.2782,3.2757,3.2755,3.2745,3.2739,3.274,3.2731,3.2731,3.273,3.2727,3.2726,3.2736,3.2736,3.2736,3.2736,0,3.299,3.2973,3.2966,3.2939,3.2926,3.2911,3.2889,3.2877,3.2866,3.285,3.2828,3.2805,3.2779,3.2772,3.276,3.2745,3.2743,3.2736,3.2731,3.2731,3.2728,3.2726,3.2738,3.2737,3.2737,3.2737,0,0,3.2998,3.2963,3.296,3.2948,3.2921,3.2907,3.2891,3.2868,3.2858,3.2838,3.2823,3.2795,3.2788,3.2773,3.2758,3.2748,3.2744,3.2742,3.2741,3.2743,3.2725,3.2731,3.273,3.2736,3.2735,3.2735,3.2727,0,3.2993,3.2966,3.2949,3.2928,3.2912,3.2896,3.2881,3.2862,3.2847,3.283,3.2813,3.2793,3.2786,3.2777,3.2766,3.2747,3.274,3.2747,3.272,3.272,3.2727,3.2728,3.2733,3.2727,3.2726,3.2725,3.2725,0,3.2983,3.2966,3.2943,3.2918,3.2911,3.2899,3.2877,3.2861,3.2839,3.2828,3.2812,3.2798,3.2779,3.2775,3.2748,3.2753,3.2741,3.273,3.2729,3.2726,3.2722,3.2724,3.2724,3.2723,3.2723,3.2723,3.2723,0,3.2991,3.2962,3.2945,3.2935,3.2905,3.2897,3.2884,3.2862,3.2849,3.2829,3.282,3.2797,3.2785,3.2767,3.2746,3.2746,3.2721,3.2716,3.2711,3.2711,3.2706,3.2706,3.2704,3.2699,3.2699,3.2699,3.2699,0,3.2987,3.2974,3.2948,3.2938,3.2922,3.2903,3.2888,3.2873,3.2853,3.2838,3.2822,3.2808,3.2782,3.2764,3.2748,3.2728,3.2722,3.2712,3.2708,3.2713,3.2715,3.2705,3.2704,3.2698,3.2699,3.2699,3.2699,0,3.2993,3.2976,3.2956,3.293,3.2923,3.2913,3.289,3.2878,3.2863,3.2844,3.2839,3.2814,3.2792,3.277,3.274,3.2729,3.2709,3.2704,3.2718,3.2715,3.2711,3.2712,3.2702,3.27,3.2697,3.2697,3.2697,0,3.2992,3.2982,3.2955,3.2945,3.2933,3.2917,3.2904,3.2885,3.2872,3.2846,3.2837,3.2815,3.2796,3.2762,3.274,3.2717,3.2711,3.2709,3.2707,3.2713,3.271,3.2711,3.271,3.2709,3.271,3.271,3.271,0,3.2991,3.2983,3.2967,3.2947,3.2934,3.2917,3.2899,3.2891,3.2868,3.2854,3.2833,3.2819,3.279,3.2767,3.2742,3.2726,3.2714,3.2711,3.2708,3.2714,3.2722,3.2717,3.2719,3.2711,3.2711,3.2711,3.2711,3.2711,3.2993,3.2983,3.2963,3.2946,3.2931,3.2915,3.2903,3.2887,3.287,3.2846,3.2835,3.2814,3.2791,3.2756,3.2741,3.2723,3.2719,3.2715,3.2714,3.2714,3.2715,3.2726,3.2718,3.2718,3.2718,3.2718,3.2717,0,3.2991,3.2977,3.2962,3.2939,3.2925,3.2916,3.2897,3.2885,3.2867,3.2848,3.283,3.2806,3.2784,3.2761,3.2738,3.2728,3.2721,3.2722,3.2722,3.2719,3.272,3.2724,3.2728,3.2728,3.2728,3.2728,3.2728,3.2728,3.2988,3.2971,3.2961,3.2936,3.2923,3.2903,3.2893,3.2878,3.2863,3.2837,3.282,3.2805,3.2784,3.2759,3.2739,3.2732,3.2724,3.2727,3.2718,3.2719,3.2719,3.2718,3.2722,3.2725,3.2725,3.2719,3.2719,3.2719]}]]